This is the latest recevied weather packets stored in our database for station/object KD0JCP-10. If no packets are shown the sender has not sent any weather packets the latest 1 day(s).
| Time | Temp. | Humidity | Pressure | Rain* | Wind** | Luminosity | Snow |
|---|---|---|---|---|---|---|---|
| 1778027172 | 10.56° C | 60% | 1014.3 hPa | 0 mm | 0.45 m/s, 302° | - | - |
| 1778026872 | 11.11° C | 57% | 1014.2 hPa | 0 mm | 0.45 m/s, 304° | - | - |
| 1778026572 | 11.11° C | 56% | 1014 hPa | 0 mm | 0.45 m/s, 304° | - | - |
| 1778026272 | 11.11° C | 55% | 1013.9 hPa | 0 mm | 0.45 m/s, 295° | - | - |
| 1778025972 | 11.11° C | 53% | 1013.9 hPa | 0 mm | 0.45 m/s, 317° | - | - |
| 1778025672 | 11.67° C | 52% | 1013.9 hPa | 0 mm | 0.45 m/s, 324° | - | - |
| 1778025372 | 11.67° C | 52% | 1013.9 hPa | 0 mm | 0.45 m/s, 324° | - | - |
| 1778025072 | 11.67° C | 50% | 1013.9 hPa | 0 mm | 0.45 m/s, 321° | - | - |
| 1778024772 | 11.67° C | 50% | 1013.8 hPa | 0 mm | 0.45 m/s, 55° | - | - |
| 1778024472 | 11.67° C | 47% | 1013.8 hPa | 0 mm | 0.45 m/s, 55° | - | - |
| 1778024172 | 11.67° C | 49% | 1013.9 hPa | 0 mm | 0.45 m/s, 15° | - | - |
| 1778023872 | 11.67° C | 49% | 1013.8 hPa | 0 mm | 0.89 m/s, 332° | - | - |
| 1778023572 | 11.67° C | 49% | 1013.7 hPa | 0 mm | 0.89 m/s, 349° | - | - |
| 1778023272 | 11.67° C | 48% | 1013.7 hPa | 0 mm | 0.89 m/s, 355° | - | - |
| 1778022972 | 11.67° C | 50% | 1013.7 hPa | 0 mm | 0.89 m/s, 292° | - | - |
| 1778022672 | 11.67° C | 50% | 1013.6 hPa | 0 mm | 0.89 m/s, 299° | - | - |
| 1778022372 | 11.67° C | 52% | 1013.7 hPa | 0 mm | 0.45 m/s, 28° | - | - |
| 1778022072 | 11.67° C | 51% | 1013.6 hPa | 0 mm | 0.45 m/s, 5° | - | - |
| 1778021772 | 11.67° C | 53% | 1013.6 hPa | 0 mm | 0.45 m/s, 35° | - | - |
| 1778021472 | 11.67° C | 51% | 1013.6 hPa | 0 mm | 0.89 m/s, 35° | - | - |
| 1778021172 | 11.67° C | 51% | 1013.5 hPa | 0 mm | 0.89 m/s, 10° | - | - |
| 1778020872 | 11.67° C | 53% | 1013.6 hPa | 0 mm | 0.89 m/s, 325° | - | - |
| 1778020572 | 11.67° C | 53% | 1013.6 hPa | 0 mm | 0.45 m/s, 296° | - | - |
| 1778020272 | 11.67° C | 54% | 1013.7 hPa | 0 mm | 0.45 m/s, 311° | - | - |
| 1778019972 | 11.67° C | 53% | 1013.7 hPa | 0 mm | 0.89 m/s, 336° | - | - |
* Rain latest hour (hover to see other rain measurements)
** Current wind speed in m/s (hover to see current wind gust speed)